Regional Weather Roundup
Issued by NWS Bismarck, ND

Home | Current Version | Previous Version | Text Only | Print | Product List | Glossary On
Versions: 1 2 3 4 5 6 7 8 9 10 11 12 13 14 15 16 17 18 19 20 21 22 23 24 25 26 27 28 29 30 31 32 33 34 35 36 37 38 39 40 41 42 43 44 45 46 47 48 49 50
929
ASUS43 KBIS 030102
RWRBIS

NWR BROADCAST TEXT
NATIONAL WEATHER SERVICE BISMARCK ND
800 PM CDT MON MAY 02 2016

NOTE: "FAIR" INDICATES FEW OR NO CLOUDS BELOW 12,000 FEET WITH NO
SIGNIFICANT WEATHER AND/OR OBSTRUCTIONS TO VISIBILITY.


CITY           SKY/WX    TMP DP  RH WIND       PRES   REMARKS
WILLISTON      SUNNY     71  24  17 N10       29.99S
MINOT          CLEAR     69  34  27 E6        29.97S
MINOT AFB      NOT AVBL
BISMARCK       CLEAR     62  42  47 E7        29.98R
DICKINSON      CLEAR     62  32  32 NE12      29.99R
GARRISON         N/A     65  36  34 NE7       29.98S
HETTINGER ARPT CLEAR     63  32  31 N13       30.01R
JAMESTOWN      CLEAR     58  38  47 S8        30.00R
STANLEY        FAIR      66  32  28 CALM      30.01S
$$

CITY           SKY/WX    TMP DP  RH WIND       PRES   REMARKS
GRAND FORKS    PTCLDY    67  31  26 SW6       29.94S
GRAND FORKS AF NOT AVBL
DEVILS LAKE    CLEAR     63  33  32 SW6       29.99S
FARGO          PTCLDY    66  33  29 W13       29.96R
LANGDON        FAIR      64  34  32 W9        29.97S
$$

CITY           SKY/WX    TMP DP  RH WIND       PRES   REMARKS
ABERDEEN       CLEAR     61  38  42 CALM      30.00R
MOBRIDGE       PTCLDY    63  44  50 N3        29.96R
BUFFALO          N/A     65  29  25 NE18      29.93R
RAPID CITY     LGT RAIN  59  38  45 NW16G26   29.97F
GLASGOW        SUNNY     74  38  27 NW12      30.00S
SIDNEY         SUNNY     70  30  23 NE12      29.99S
WOLF POINT     SUNNY     77  38  24 NE10      29.98S
GLENDIVE       SUNNY     70  36  28 NE9       30.02S
MILES CITY     SUNNY     70  36  28 NW15      30.03F
BAKER          SUNNY     67  35  30 NE10      30.01S
$$

CITY           SKY/WX    TMP DP  RH WIND       PRES   REMARKS
BILLINGS       MOSUNNY   68  32  26 E8        30.11S
GREAT FALLS    SUNNY     70  27  20 CALM      30.09F
$$





USA.gov is the U.S. government's official web portal to all federal, state and local government web resources and services.